2018-099B (43759 NORAD) Tracking and Keplerian Element Data

This shows tracking and keplerian element data for the satellite.

Feedback or suggestion? Click here.




ElementValue
Catalog43759
Name2018-099B
Epoch Orbit100
Epoch Day344.51128145
Epoch Year2018
RAAN53.6059
Inclination97.7684
Eccentricity0.0013203
Argument of Perigee231.449
Mean Anonmoly128.5548
Mean Motion14.95042539
Decay Rate-2.17E-06
L11 43759U 18099B 18344.51128145 -.00000217 00000-0 -14446-4 0 9997
L22 43759 97.7684 53.6059 0013203 231.4490 128.5548 14.95042539 1007

Live tracking and technical data element details for 2018-099B (NORAD 43759). 2018-099B can be tracked NOW for your location showing map with azimuth and elevation plus other details from your city location.

Track the satellite on the map from your city or location and see movement details for azimuth, elevation, latitude, longitude, range, height, and movement on the map or in text.







IsCatalogInMostPopularTable: catalog: 43759, numindb: 2
Update: records affected: 1



GetName: 43759 2018-099B

Hit Count: updated at: Tue, 11 Dec 2018 02:19:25 GMT